Location: Bratsk-Energetik
(56.3300°N, 101.7600°E)
Time: 22:13:53
(UTC+08:00)

ISS - Pass Details

Date: 26 May 2017
Orbit: 402 x 409 km, 51.6° (Epoch: 25 May)

Event Time Altitude Azimuth Distance (km) Brightness Sun altitude
Rises 03:13:56 0° 271° (W) 2,331 -0.3 -8.3°
Reaches altitude 10° 03:16:31 10° 250° (WSW) 1,466 -1.4 -8.1°
Maximum altitude 03:18:42 17° 208° (SSW) 1,123 -2.2 -8.0°
Drops below altitude 10° 03:20:53 10° 166° (SSE) 1,459 -1.4 -7.8°
Sets 03:23:27 0° 145° (SE) 2,314 -0.2 -7.6°
